Location: Blackrock Ranger Station
(36.0936°N, 118.2611°W)
Time: 13:35:24
(UTC-07:00)

LilacSat-2 - Visible Passes

Search period start: 11 April 2026 00:00
Search period end: 21 April 2026 00:00
Orbit: 413 x 425 km, 97.5° (Epoch: 11 April)

Date Brightness Start Highest point End Pass type
(mag) Time Alt. Az. Time Alt. Az. Time Alt. Az.
11 Apr ? 19:51:01 10° SE 19:54:00 38° ENE 19:57:00 10° N visible
12 Apr ? 20:38:37 10° SSW 20:41:33 33° W 20:44:29 10° NNW visible
13 Apr ? 19:54:02 10° SSE 19:57:03 42° ENE 20:00:05 10° N visible
14 Apr ? 20:41:42 10° SSW 20:44:34 30° W 20:47:26 10° NW visible
15 Apr ? 19:56:57 10° SSE 20:00:00 46° ENE 20:03:05 10° N visible
16 Apr ? 20:44:42 10° SSW 20:47:29 28° W 20:50:17 10° NW visible
17 Apr ? 19:59:46 10° SSE 20:02:52 50° ENE 20:05:58 10° N visible
18 Apr ? 20:47:36 10° SSW 20:50:18 25° W 20:53:02 10° NW visible
19 Apr ? 20:02:31 10° SSE 20:05:37 56° ENE 20:08:44 10° N visible
20 Apr ? 20:50:24 10° SSW 20:53:02 24° W 20:55:40 10° NW visible
